Weather History for Montrose, CO

Change the Weather History Date:

Thursday, September 22, 2011

  Actual Average Record
Temperature  
Mean Temperature 60 °F 60 °F  
Max Temperature 77 °F 75 °F 85 °F (2012)
Min Temperature 44 °F 45 °F 33 °F (2006)
Degree Days  
Heating Degree Days 6 6  
Month to date heating degree days 63  
Since 1 July heating degree days 68  
Cooling Degree Days 0 1  
Month to date cooling degree days 37  
Year to date cooling degree days 642  
Growing Degree Days 10 (Base 50)    
Moisture  
Dew Point 33 °F    
Average Humidity 41    
Maximum Humidity 71    
Minimum Humidity 16    
Precipitation  
Precipitation 0.00 in 0.06 in 0.89 in (2013)
Month to date precipitation 0.95  
Year to date precipitation 8.28  
Sea Level Pressure  
Sea Level Pressure 30.13 in    
Wind  
Wind Speed 7 mph (SE)    
Max Wind Speed 14 mph    
Max Gust Speed -    
Visibility 10 miles    
Events      
T = Trace of Precipitation, MM = Missing Value Source: NWS Daily Summary

Daily Weather History Graph

Daily Weather History Graph

Search for Another Location

Airport:

Trip Planner

Search our weather history database for the weather conditions in past years. The results will help you decide how hot, cold, wet, or windy it might be!

Date:

Astronomy

Sep. 22, 2011 Rise Set
Actual Time 6:59 AM MDT 7:08 PM MDT
Civil Twilight 6:32 AM MDT 7:35 PM MDT
Nautical Twilight 6:01 AM MDT 8:06 PM MDT
Astronomical Twilight 5:30 AM MDT 8:37 PM MDT
Moon 1:27 AM MDT (9/22) 4:00 PM MDT (9/22)
Length of Visible Light 13h 02m
Length of Day
12h 09m
Waning Crescent, 28% of the Moon is Illuminated
Sep 22
Waning Crescent
Sep 27
New
Oct 3
First Quarter
Oct 11
Full
Oct 19
Last Quarter

Hourly Weather History & Observations

Time (MDT) Temp. Windchill Dew Point Humidity Pressure Visibility Wind Dir Wind Speed Gust Speed Precip Events Conditions
12:53 AM 51.1 °F - 36.0 °F 56% 30.08 in 10.0 mi SSE 8.1 mph - N/A   Clear
1:53 AM 50.0 °F - 36.0 °F 59% 30.09 in 10.0 mi SE 8.1 mph - N/A   Mostly Cloudy
2:53 AM 50.0 °F - 37.0 °F 61% 30.08 in 10.0 mi SE 5.8 mph - N/A   Scattered Clouds
3:53 AM 48.0 °F - 36.0 °F 63% 30.10 in 10.0 mi SE 9.2 mph - N/A   Clear
4:53 AM 46.9 °F - 35.1 °F 63% 30.11 in 10.0 mi SSE 6.9 mph - N/A   Clear
5:53 AM 44.1 °F 40.1 °F 35.1 °F 71% 30.13 in 10.0 mi SE 6.9 mph - N/A   Clear
6:53 AM 45.0 °F 40.1 °F 35.1 °F 68% 30.16 in 10.0 mi SE 9.2 mph - N/A   Clear
8:53 AM 55.0 °F - 35.1 °F 47% 30.19 in 10.0 mi ESE 5.8 mph - N/A   Clear
11:53 AM 69.1 °F - 35.1 °F 29% 30.17 in 10.0 mi North 3.5 mph - N/A   Clear
12:53 PM 73.0 °F - 26.1 °F 17% 30.16 in 10.0 mi Calm Calm - N/A   Clear
2:53 PM 75.9 °F - 26.1 °F 16% 30.12 in 10.0 mi North 6.9 mph - N/A   Clear
3:53 PM 75.9 °F - 26.1 °F 16% 30.11 in 10.0 mi NW 8.1 mph - N/A   Clear
4:53 PM 75.9 °F - 28.0 °F 17% 30.10 in 10.0 mi WNW 8.1 mph - N/A   Clear
5:53 PM 75.9 °F - 28.0 °F 17% 30.11 in 10.0 mi West 4.6 mph - N/A   Clear
6:53 PM 73.0 °F - 33.1 °F 23% 30.13 in 10.0 mi North 3.5 mph - N/A   Clear
7:53 PM 64.9 °F - 39.9 °F 40% 30.15 in 10.0 mi South 3.5 mph - N/A   Clear
8:53 PM 60.1 °F - 37.9 °F 44% 30.17 in 10.0 mi SE 9.2 mph - N/A   Clear
9:53 PM 57.9 °F - 34.0 °F 41% 30.17 in 10.0 mi SE 13.8 mph - N/A   Clear
10:53 PM 57.0 °F - 30.9 °F 37% 30.17 in 10.0 mi ESE 11.5 mph - N/A   Clear
11:53 PM 55.0 °F - 30.9 °F 40% 30.17 in 10.0 mi SSE 9.2 mph - N/A   Clear